Total_Precipitation_Accumulation
0.44 0.52 0.61 0.75 0.85 0.89 0.97 1.14 1.33 1.44 1.47 1.50 1.47 1.42 1.55 1.61 1.48 1.41 1.56 1.72 1.80 1.83 1.79 1.65 1.52 1.41 1.35 1.30 1.26 1.16 1.06 0.97 0.86 0.85 0.83 0.74 0.65 0.62 0.54 0.47 0.43 0.42 0.40
0.47 0.54 0.61 0.74 0.83 0.92 0.95 1.08 1.28 1.38 1.37 1.35 1.41 1.40 1.44 1.53 1.56 1.45 1.46 1.59 1.76 1.90 2.05 1.95 1.76 1.60 1.47 1.42 1.35 1.26 1.24 1.18 1.04 0.95 0.97 0.96 0.89 0.73 0.60 0.53 0.44 0.42 0.42
0.48 0.53 0.59 0.69 0.81 0.94 0.95 0.95 1.13 1.36 1.40 1.40 1.51 1.56 1.65 1.70 1.70 1.58 1.45 1.48 1.56 1.65 1.75 1.88 1.78 1.73 1.62 1.54 1.44 1.34 1.30 1.31 1.20 1.03 1.11 1.18 1.03 0.79 0.67 0.60 0.54 0.46 0.44
0.48 0.54 0.59 0.69 0.77 0.91 1.05 1.02 1.05 1.24 1.46 1.47 1.46 1.47 1.54 1.57 1.57 1.51 1.41 1.41 1.52 1.57 1.59 1.69 1.75 1.64 1.53 1.45 1.41 1.37 1.27 1.30 1.31 1.18 1.04 0.99 0.96 0.99 0.87 0.68 0.63 0.62 0.56
0.50 0.56 0.61 0.71 0.82 0.94 1.10 1.17 1.16 1.16 1.37 1.43 1.36 1.36 1.37 1.43 1.54 1.55 1.50 1.44 1.52 1.61 1.65 1.63 1.69 1.73 1.60 1.41 1.32 1.36 1.37 1.32 1.27 1.20 1.10 0.96 0.83 0.81 0.94 0.82 0.70 0.72 0.70
0.54 0.58 0.64 0.76 0.89 0.99 1.13 1.23 1.27 1.20 1.25 1.46 1.41 1.30 1.27 1.29 1.40 1.51 1.61 1.60 1.56 1.59 1.65 1.67 1.62 1.62 1.66 1.60 1.41 1.33 1.36 1.34 1.30 1.25 1.18 1.12 1.05 0.90 0.88 0.84 0.68 0.65 0.64
0.53 0.58 0.66 0.78 0.84 0.93 1.06 1.18 1.22 1.24 1.23 1.36 1.44 1.34 1.25 1.23 1.24 1.33 1.45 1.56 1.58 1.54 1.55 1.62 1.62 1.57 1.55 1.57 1.52 1.43 1.38 1.35 1.37 1.33 1.23 1.14 1.06 0.99 1.00 1.03 0.86 0.70 0.60
0.45 0.53 0.61 0.71 0.79 0.82 0.94 1.07 1.16 1.16 1.18 1.30 1.46 1.45 1.35 1.32 1.22 1.24 1.35 1.43 1.45 1.42 1.39 1.42 1.46 1.42 1.37 1.39 1.44 1.41 1.34 1.34 1.38 1.39 1.35 1.26 1.09 1.04 1.11 1.19 1.24 1.10 0.77
0.43 0.48 0.56 0.61 0.65 0.75 0.84 0.95 1.12 1.21 1.19 1.21 1.40 1.59 1.57 1.45 1.33 1.22 1.27 1.32 1.34 1.38 1.41 1.39 1.36 1.28 1.25 1.23 1.23 1.26 1.23 1.25 1.28 1.34 1.39 1.39 1.25 1.16 1.12 1.15 1.33 1.59 1.37
0.46 0.49 0.53 0.55 0.59 0.67 0.75 0.85 1.02 1.16 1.20 1.17 1.25 1.44 1.66 1.62 1.51 1.45 1.30 1.28 1.29 1.33 1.39 1.40 1.38 1.30 1.20 1.19 1.18 1.13 1.09 1.14 1.15 1.19 1.30 1.35 1.29 1.21 1.16 1.19 1.20 1.31 1.49
0.41 0.46 0.48 0.55 0.59 0.64 0.73 0.83 0.94 1.06 1.12 1.07 1.11 1.23 1.44 1.64 1.64 1.55 1.42 1.28 1.26 1.25 1.24 1.28 1.32 1.29 1.22 1.18 1.22 1.18 1.10 1.11 1.12 1.14 1.17 1.20 1.21 1.23 1.16 1.16 1.18 1.16 1.21
0.35 0.40 0.44 0.53 0.57 0.62 0.72 0.78 0.86 1.00 1.08 1.07 1.09 1.13 1.22 1.39 1.60 1.54 1.40 1.26 1.22 1.24 1.25 1.22 1.25 1.24 1.23 1.21 1.21 1.17 1.11 1.10 1.09 1.09 1.08 1.07 1.10 1.17 1.12 1.09 1.07 1.03 0.98
0.32 0.37 0.45 0.47 0.52 0.61 0.67 0.71 0.78 0.91 1.01 1.09 1.10 1.07 1.13 1.21 1.31 1.44 1.39 1.29 1.21 1.19 1.21 1.23 1.23 1.24 1.25 1.23 1.14 1.14 1.09 1.04 1.06 1.07 1.07 1.03 1.08 1.14 1.09 1.09 1.03 0.93 0.87
0.32 0.36 0.43 0.45 0.49 0.56 0.66 0.67 0.77 0.86 0.90 0.98 1.01 0.99 0.98 1.04 1.10 1.20 1.38 1.38 1.29 1.19 1.13 1.11 1.16 1.24 1.38 1.40 1.33 1.34 1.22 1.09 1.04 0.99 0.97 1.00 1.11 1.14 1.15 1.19 1.07 0.99 1.00
0.31 0.36 0.41 0.45 0.51 0.58 0.67 0.71 0.74 0.75 0.76 0.86 0.92 0.96 0.98 1.03 1.06 1.04 1.17 1.35 1.30 1.16 1.08 1.04 1.08 1.16 1.50 1.87 1.85 1.76 1.50 1.20 1.03 0.95 0.94 0.99 1.13 1.19 1.35 1.47 1.34 1.30 1.38
0.34 0.35 0.40 0.44 0.51 0.58 0.68 0.78 0.78 0.75 0.71 0.76 0.85 0.91 0.98 1.10 1.10 1.02 1.07 1.20 1.28 1.22 1.11 1.04 1.03 1.06 1.33 1.97 2.10 1.79 1.36 1.17 1.05 0.99 0.94 0.94 1.05 1.08 1.18 1.36 1.45 1.51 1.62
0.38 0.38 0.41 0.46 0.53 0.58 0.67 0.78 0.80 0.78 0.74 0.73 0.79 0.85 0.89 1.04 1.09 1.06 1.10 1.15 1.21 1.28 1.27 1.12 1.02 0.98 1.14 1.76 1.90 1.61 1.24 1.09 1.03 0.97 0.96 0.95 0.99 1.05 1.03 1.13 1.19 1.22 1.37
0.38 0.39 0.43 0.49 0.50 0.55 0.60 0.69 0.74 0.73 0.75 0.76 0.80 0.85 0.84 0.88 1.02 1.10 1.10 1.13 1.16 1.19 1.24 1.20 1.11 1.02 1.07 1.57 1.73 1.51 1.21 1.09 1.02 0.94 0.93 0.91 0.92 1.02 1.22 1.19 1.14 1.05 1.06
0.37 0.40 0.44 0.48 0.48 0.49 0.53 0.64 0.71 0.69 0.74 0.82 0.83 0.82 0.78 0.80 0.89 0.99 1.08 1.12 1.13 1.09 1.11 1.12 1.11 1.07 1.03 1.34 1.59 1.44 1.16 1.11 1.04 0.93 0.91 0.91 0.89 1.10 1.38 1.32 1.17 0.99 0.90
0.32 0.37 0.42 0.41 0.43 0.47 0.50 0.62 0.69 0.65 0.71 0.77 0.83 0.77 0.69 0.66 0.68 0.78 0.97 1.08 1.08 1.03 1.04 1.04 1.05 0.99 0.93 1.15 1.41 1.41 1.14 1.07 1.03 0.98 0.93 1.03 1.11 1.26 1.39 1.27 1.24 1.31 1.09
0.27 0.32 0.36 0.38 0.45 0.49 0.49 0.57 0.67 0.71 0.72 0.75 0.81 0.73 0.67 0.66 0.66 0.71 0.87 1.01 1.08 1.07 1.02 0.98 0.98 0.94 0.93 1.04 1.21 1.42 1.23 1.08 1.04 1.03 0.98 0.94 1.18 1.26 1.32 1.35 1.31 1.52 1.42
0.23 0.24 0.30 0.35 0.42 0.47 0.50 0.57 0.66 0.71 0.76 0.77 0.74 0.73 0.72 0.69 0.71 0.74 0.85 0.99 1.07 1.11 1.07 0.98 0.95 0.93 0.93 1.03 1.17 1.35 1.37 1.26 1.07 0.98 0.87 0.90 1.12 1.20 1.29 1.29 1.36 1.47 1.42
0.24 0.25 0.29 0.32 0.39 0.45 0.50 0.60 0.67 0.65 0.70 0.73 0.73 0.72 0.74 0.72 0.74 0.79 0.87 0.99 1.06 1.09 1.08 1.00 0.92 0.91 0.87 1.01 1.25 1.20 1.24 1.28 1.10 0.97 1.04 1.10 1.19 1.20 1.12 1.17 1.27 1.26 1.19
0.25 0.26 0.29 0.32 0.41 0.46 0.49 0.57 0.63 0.60 0.58 0.62 0.67 0.66 0.71 0.76 0.80 0.83 0.87 0.95 1.05 1.11 1.03 0.97 0.89 0.83 0.85 1.05 1.21 1.14 1.11 1.19 1.17 1.11 1.15 1.21 1.19 1.09 0.99 1.03 1.05 1.01 1.09
0.28 0.29 0.31 0.34 0.42 0.48 0.54 0.59 0.58 0.55 0.54 0.55 0.64 0.69 0.73 0.79 0.82 0.85 0.90 0.97 0.99 1.12 1.09 0.96 0.90 0.91 1.01 1.18 1.31 1.26 1.18 1.17 1.19 1.29 1.35 1.26 1.16 1.10 0.97 0.87 0.83 0.87 1.02
0.33 0.32 0.33 0.36 0.43 0.49 0.59 0.61 0.55 0.53 0.55 0.58 0.63 0.70 0.75 0.77 0.77 0.76 0.82 0.96 1.00 1.04 1.02 0.96 0.94 0.89 1.05 1.19 1.24 1.30 1.31 1.33 1.40 1.44 1.36 1.14 0.99 0.95 0.91 0.88 0.85 0.81 0.85